Retour au catalogue

FENGYUN 1C DEB

ActifPO
NORAD 31763·DEBRIS·🇨🇳 China

Lancé May 10, 1999 depuis Taiyuan Satellite Launch Center

Loading…

Prochains Passages (prochaines 24 heures)

TLE

FraisSource: Space-Track

Époque: Sep 14, 2026, 11:18 UTC

1 31763U 99025CFN 26257.47132106  .00000379  00000-0  24968-3 0  9992
2 31763  98.5160 332.8175 0545135  74.7446 304.0829 13.50962735947282

Suivez FENGYUN 1C DEB en temps réel avec AllMySat

Download on the App Store